Dewpoint
36 35 32 38 38 36 35 28 24 20 19 15 16 16 17 18 20 47 57 56 57 59 62 64 65 66 66 66 66 66 65 64 65 68 69 67 67 71 71 71 71 72 71 71
37 34 38 39 38 37 36 33 30 24 22 16 18 16 17 17 21 51 58 53 55 59 61 62 64 63 64 64 65 66 66 65 66 66 68 69 70 70 70 69 67 66 65 65
35 38 39 38 37 35 35 32 31 23 23 21 17 16 18 41 54 50 55 55 56 57 60 61 63 63 64 62 62 64 66 65 66 66 65 68 68 66 65 64 63 63 63 60
35 36 37 37 33 33 31 32 32 25 21 16 18 12 17 26 51 53 55 56 57 60 61 62 61 62 63 63 64 64 65 64 65 66 66 66 67 64 64 64 63 63 63 63
31 35 35 34 34 32 30 31 29 24 21 20 19 15 16 41 46 51 54 56 58 60 60 61 61 61 62 63 62 63 63 64 65 65 67 67 67 64 63 62 61 61 62 61
36 38 36 29 30 31 30 27 27 25 22 18 19 17 18 21 32 49 54 56 58 59 60 60 61 60 61 62 62 62 62 62 65 64 67 67 64 62 60 61 60 60 60 59
31 32 32 29 29 28 28 24 23 19 22 20 23 21 20 24 34 48 54 56 57 58 57 59 59 59 60 61 60 62 62 64 66 65 67 66 63 62 60 60 59 58 56 55
28 23 28 29 28 26 27 27 25 18 21 20 27 22 21 28 30 45 54 56 57 57 56 58 58 58 59 60 60 63 62 63 64 65 66 65 63 61 60 60 60 58 56 55
28 27 28 29 30 28 30 25 29 28 28 21 24 25 27 30 36 46 51 52 54 55 56 56 58 60 60 59 60 61 62 63 60 64 65 64 62 60 60 60 58 57 56 55
31 29 27 28 29 29 27 31 26 30 23 20 23 24 21 26 27 45 48 50 52 54 55 55 57 59 61 62 63 60 61 64 64 64 63 62 61 61 60 57 56 55 52 51
33 34 24 27 25 21 22 26 32 33 32 25 25 24 35 31 26 29 47 49 51 52 53 54 55 60 62 64 66 62 63 63 63 62 61 60 59 57 56 53 52 50 50 49
38 33 26 18 21 21 25 26 31 28 29 30 30 28 37 47 46 30 31 47 49 51 52 54 56 63 64 64 64 63 62 62 61 60 59 57 55 53 51 50 49 48 46 45
39 35 19 18 17 24 20 26 29 32 33 29 27 27 39 50 50 47 31 45 49 51 51 55 61 62 62 61 60 60 60 60 59 57 55 53 51 50 48 47 45 44 44 44
41 36 27 21 20 27 22 25 31 31 30 31 33 35 38 47 47 50 48 50 49 51 57 61 61 60 60 59 58 58 58 57 56 55 53 51 49 46 44 44 44 45 45 45
40 34 39 33 32 27 24 20 32 29 30 31 33 36 47 49 50 50 53 54 55 56 57 57 58 58 58 58 57 57 57 56 55 52 48 44 43 44 44 45 45 45 44 44
43 36 38 32 33 19 16 17 29 31 36 38 43 43 50 51 50 50 50 52 53 53 54 55 57 57 57 57 57 57 55 52 46 41 41 43 43 44 43 42 42 41 41 42
40 38 35 27 34 24 17 18 25 34 35 37 37 45 49 47 47 45 49 49 51 51 51 51 50 52 54 53 51 48 46 43 41 41 42 43 42 41 40 40 40 40 40 40
39 38 36 32 31 21 23 39 25 34 36 43 47 48 48 46 45 45 46 46 46 44 43 43 42 42 43 46 45 45 43 41 41 41 41 40 39 39 39 39 39 39 39 38
42 41 36 31 31 31 36 38 37 34 41 47 47 48 47 46 46 44 43 43 44 42 41 41 41 41 41 42 44 43 43 43 40 40 39 39 38 38 38 38 37 38 38 38
43 43 37 33 29 25 34 41 44 43 39 49 48 46 45 46 44 43 40 41 42 41 42 41 40 38 38 39 40 40 39 40 40 39 39 38 38 38 37 37 36 35 34 34
38 38 34 35 32 34 41 41 45 30 32 48 48 46 46 46 44 41 41 42 42 41 41 41 40 40 39 40 41 40 39 38 37 37 36 36 37 36 34 32 32 32 32 32
37 34 34 36 34 29 44 42 38 40 47 49 48 47 46 43 42 41 41 41 41 41 40 39 39 40 41 41 40 38 37 38 37 37 35 34 34 35 33 31 31 31 31 30
38 42 40 39 38 45 47 47 49 48 48 50 46 44 43 42 41 41 41 40 39 38 37 37 36 35 37 39 39 38 38 37 36 34 33 33 34 34 33 31 31 30 30 30
39 47 42 42 45 45 48 49 51 49 47 46 45 44 43 42 41 41 40 37 36 35 34 34 34 33 33 34 35 36 36 35 34 33 32 33 33 33 33 33 31 31 30 30
39 41 42 42 46 46 48 49 52 48 47 46 46 44 43 43 42 40 37 36 35 34 33 33 33 33 33 34 34 34 34 34 33 33 33 33 33 33 33 33 32 32 32 32
43 43 41 42 47 47 46 50 51 47 46 45 44 44 44 43 40 38 35 35 34 33 33 33 33 32 32 33 34 35 35 33 33 33 32 32 32 32 32 32 32 35 35 35
Lifted_Index
2 3 4 3 3 4 4 5 6 7 8 7 7 7 7 6 5 3 -0 -2 -3 -3 -3 -3 -4 -3 -3 -3 -3 -3 -3 -3 -3 -4 -4 -4 -4 -5 -5 -5 -5 -5 -5 -5
1 2 2 2 3 4 4 5 6 7 7 7 7 7 7 5 4 2 0 -1 -2 -2 -3 -3 -4 -3 -3 -3 -2 -2 -2 -2 -2 -3 -3 -3 -4 -4 -5 -5 -5 -5 -5 -5
1 1 1 1 2 3 4 4 5 6 6 6 6 6 6 4 3 1 0 -1 -1 -2 -2 -3 -3 -3 -3 -2 -2 -1 -1 -1 -1 -1 -1 -1 -2 -3 -4 -4 -5 -4 -4 -5
1 1 0 1 2 3 3 4 4 5 5 5 5 4 5 4 2 1 0 -0 -1 -1 -2 -2 -2 -2 -2 -2 -2 -1 -1 -1 -1 -0 -0 -0 -1 -2 -3 -3 -4 -4 -4 -3
0 0 0 1 2 3 3 3 3 4 4 4 4 4 4 4 3 2 1 0 -1 -1 -1 -2 -2 -2 -2 -2 -2 -2 -1 -1 -0 0 0 -0 -1 -1 -2 -2 -3 -3 -2 -1
0 0 1 1 2 2 2 3 3 3 3 3 3 3 3 3 3 2 1 0 -0 -1 -1 -1 -2 -2 -2 -2 -2 -1 -0 0 0 0 0 -0 -1 -1 -1 -1 -2 -2 -0 2
0 1 1 2 2 2 2 2 2 2 1 2 3 3 3 4 4 3 1 -0 -1 -1 -1 -1 -2 -2 -2 -2 -1 -1 -0 -0 -0 0 0 -0 -0 -0 -0 -1 -1 -0 2 4
1 1 2 2 2 2 2 2 2 1 1 2 2 2 3 4 4 3 1 -1 -1 -2 -2 -2 -2 -2 -2 -2 -2 -1 -1 -1 -0 0 1 0 0 0 0 -0 1 2 4 4
1 1 2 2 2 2 2 2 2 2 1 1 2 2 3 4 4 3 1 -1 -1 -2 -2 -2 -2 -2 -2 -2 -2 -2 -1 -1 -0 1 1 1 0 -0 0 1 3 4 4 4
1 1 2 2 2 2 2 2 2 2 1 1 1 2 2 3 4 3 1 0 -0 -1 -2 -2 -2 -2 -3 -3 -2 -2 -1 -1 -0 1 1 0 -0 -0 1 2 4 4 4 4
0 1 1 2 2 2 2 2 3 3 2 1 1 1 2 3 3 3 2 2 1 0 -1 -1 -2 -3 -4 -5 -4 -2 -1 -0 0 -0 -1 -1 -0 0 2 3 4 4 4 4
0 0 1 1 1 2 2 2 3 3 2 2 2 2 2 2 2 3 3 2 2 1 -0 -2 -3 -4 -5 -5 -4 -3 -1 -1 -1 -1 -1 -1 0 1 2 3 4 4 5 5
-0 -0 0 1 1 1 2 2 2 2 2 2 2 2 1 1 1 2 2 2 1 0 -1 -3 -4 -5 -5 -5 -4 -3 -2 -1 -1 -1 -1 0 1 2 2 2 3 4 5 6
-0 -0 0 1 1 1 1 1 1 1 1 1 1 1 0 -1 -0 0 0 -0 -1 -1 -2 -4 -5 -5 -5 -4 -3 -2 -2 -1 -1 -0 0 1 2 2 3 3 4 5 6 6
-0 -0 -0 -0 0 1 1 1 1 1 1 0 0 -0 -1 -2 -2 -1 -1 -2 -2 -3 -3 -4 -4 -4 -4 -3 -2 -2 -1 -0 0 1 1 2 2 3 3 4 4 5 5 6
-0 -1 -1 -1 -0 0 1 1 1 0 0 -0 -1 -1 -2 -2 -2 -2 -2 -2 -3 -3 -3 -3 -4 -4 -3 -2 -2 -1 -0 0 1 1 2 2 2 3 3 4 5 5 6 7
-0 -1 -1 -1 -1 -0 0 1 1 0 -0 -1 -1 -2 -2 -2 -2 -2 -2 -3 -3 -3 -2 -3 -3 -3 -3 -2 -2 -1 0 1 1 1 1 2 2 3 3 4 5 6 8 9
-0 -0 -1 -1 -1 -1 -1 -1 -0 0 -0 -1 -1 -2 -1 -1 -1 -1 -2 -2 -2 -2 -2 -2 -3 -3 -2 -2 -1 -1 0 1 1 1 1 1 2 2 3 5 6 8 10 11
-0 -0 -0 -1 -1 -1 -2 -2 -1 -1 -1 -1 -1 -1 -1 -1 -0 -0 -1 -1 -1 -2 -2 -2 -2 -2 -2 -2 -1 -1 -0 -0 0 1 1 2 3 3 5 6 8 10 11 11
-0 -0 -0 -0 -1 -1 -1 -2 -2 -1 -1 -1 -1 -1 -0 0 0 -0 -0 -1 -1 -1 -1 -2 -2 -2 -1 -0 0 0 0 1 1 2 4 5 6 7 8 9 10 11 11 11
-0 -0 -0 -0 -0 -1 -1 -2 -2 -1 -1 -1 -1 -1 -1 -0 -0 -0 -0 -0 -0 -1 -1 -1 -1 -1 1 2 3 2 2 3 5 6 7 9 9 10 10 11 11 11 11 11
-0 -0 -0 -0 -0 -1 -1 -1 -1 -1 -1 -1 -1 -1 -1 -0 -0 -0 -0 -0 0 0 0 0 0 1 2 4 5 5 5 6 9 10 10 11 11 12 12 12 12 12 12 12
-0 -0 -0 -0 -0 -0 -1 -1 -1 -1 -2 -2 -1 -1 -1 -1 0 0 -0 0 1 1 1 2 2 2 3 5 6 6 7 9 11 12 12 12 12 12 12 12 12 12 12 12
1 0 -0 -0 -0 -1 -1 -1 -1 -2 -2 -2 -2 -1 -1 -0 0 0 0 1 2 2 2 3 3 3 5 6 7 8 9 11 13 13 12 12 12 12 12 13 13 13 13 13
2 1 0 0 0 -0 -1 -1 -1 -2 -2 -2 -1 -1 -0 -0 0 0 1 1 2 3 3 4 5 6 8 10 11 12 12 13 13 13 13 13 13 13 13 14 14 15 16 16
2 2 1 1 0 0 -0 -1 -1 -1 -2 -1 -1 -0 -0 -0 0 0 1 1 2 3 4 5 7 9 11 13 14 14 14 14 14 14 13 14 14 14 15 15 16 17 18 19